ProjectID,Date,Electric Generation,Electric Utility Import,Facility Electric Load
,YYYY-MM-DD,kW,kW,kW
549,2017-12-01,0.0,,0.0
549,2017-12-02,0.0,,0.0
549,2017-12-03,0.0,,0.0
549,2017-12-04,0.0,,0.0
549,2017-12-05,0.0,,0.0
549,2017-12-06,0.0,,0.0
549,2017-12-07,0.0,,0.0
549,2017-12-08,0.0,,0.0
549,2017-12-09,0.0,,0.0
549,2017-12-10,0.0,,0.0
549,2017-12-11,0.0,,0.0
549,2017-12-12,0.0,,0.0
549,2017-12-13,0.0,,0.0
549,2017-12-14,0.7170833333333334,,0.7170833333333334
549,2017-12-15,1.1758333333333337,,1.1758333333333337
549,2017-12-16,1.0254166666666666,,1.0254166666666666
549,2017-12-17,1.24125,,1.24125
549,2017-12-18,4.840833333333332,,4.840833333333332
549,2017-12-19,7.679166666666667,,7.679166666666667
549,2017-12-20,10.355000000000002,,10.355000000000002
549,2017-12-21,14.670833333333327,,14.670833333333327
549,2017-12-22,2.2237500000000003,,2.2237500000000003
549,2017-12-23,0.915,,0.915
549,2017-12-24,7.233750000000003,,7.233750000000003
549,2017-12-25,0.6458333333333333,,0.6458333333333333
549,2017-12-26,1.0520833333333333,,1.0520833333333333
549,2017-12-27,3.453333333333333,,3.453333333333333
549,2017-12-28,4.293333333333334,,4.293333333333334
549,2017-12-29,4.370833333333334,,4.370833333333334
549,2017-12-30,0.15875,,0.15875
549,2017-12-31,0.9345833333333332,,0.9345833333333332
549,2018-01-01,1.9875,,1.9875
549,2018-01-02,2.170833333333334,,2.170833333333334
549,2018-01-03,2.47125,,2.47125
549,2018-01-04,0.020833333333333332,,0.020833333333333332
549,2018-01-05,11.121666666666668,,11.121666666666668
549,2018-01-06,20.42458333333333,,20.42458333333333
549,2018-01-07,24.734166666666667,,24.734166666666667
549,2018-01-08,13.718333333333334,,13.718333333333334
549,2018-01-09,30.76,,30.76
549,2018-01-10,41.17166666666667,,41.17166666666667
549,2018-01-11,15.122916666666667,,15.122916666666667
549,2018-01-12,2.9437499999999996,,2.9437499999999996
549,2018-01-13,32.16583333333333,,32.16583333333333
549,2018-01-14,48.35166666666666,,48.35166666666666
549,2018-01-15,23.058750000000003,,23.058750000000003
549,2018-01-16,14.013333333333334,,14.013333333333334
549,2018-01-17,1.3524999999999998,,1.3524999999999998
549,2018-01-18,6.974583333333334,,6.974583333333334
549,2018-01-19,9.122083333333334,,9.122083333333334
549,2018-01-20,28.025416666666672,,28.025416666666672
549,2018-01-21,37.181666666666665,,37.181666666666665
549,2018-01-22,15.652083333333332,,15.652083333333332
549,2018-01-23,14.4925,,14.4925
549,2018-01-24,33.61083333333334,,33.61083333333334
549,2018-01-25,47.99041666666667,,47.99041666666667
549,2018-01-26,53.01000000000001,,53.01000000000001
549,2018-01-27,46.080000000000005,,46.080000000000005
549,2018-01-28,14.270416666666668,,14.270416666666668
549,2018-01-29,32.919999999999995,,32.919999999999995
549,2018-01-30,4.292083333333333,,4.292083333333333
549,2018-01-31,53.26833333333334,,53.26833333333334
549,2018-02-01,21.030833333333337,,21.030833333333337
549,2018-02-02,35.32166666666667,,35.32166666666667
549,2018-02-03,62.074583333333344,,62.074583333333344
549,2018-02-04,18.27916666666667,,18.27916666666667
549,2018-02-05,58.163333333333334,,58.163333333333334
549,2018-02-06,24.397499999999997,,24.397499999999997
549,2018-02-07,1.6049999999999998,,1.6049999999999998
549,2018-02-08,46.26083333333333,,46.26083333333333
549,2018-02-09,31.87625,,31.87625
549,2018-02-10,11.032083333333333,,11.032083333333333
549,2018-02-11,8.740833333333333,,8.740833333333333
549,2018-02-12,36.622083333333336,,36.622083333333336
549,2018-02-13,68.47083333333335,,68.47083333333335
549,2018-02-14,33.73,,33.73
549,2018-02-15,26.045833333333334,,26.045833333333334
549,2018-02-16,15.59625,,15.59625
549,2018-02-17,57.02249999999999,,57.02249999999999
549,2018-02-18,0.8925,,0.8925
549,2018-02-19,3.014166666666666,,3.014166666666666
549,2018-02-20,46.15041666666667,,46.15041666666667
549,2018-02-21,58.800000000000004,,58.800000000000004
549,2018-02-22,8.79875,,8.79875
549,2018-02-23,9.520000000000001,,9.520000000000001
549,2018-02-24,31.142083333333332,,31.142083333333332
549,2018-02-25,9.443333333333333,,9.443333333333333
549,2018-02-26,42.49208333333333,,42.49208333333333
549,2018-02-27,80.75208333333333,,80.75208333333333
549,2018-02-28,71.99458333333334,,71.99458333333334
549,2018-03-01,43.10541666666668,,43.10541666666668
549,2018-03-02,0.6766666666666667,,0.6766666666666667
549,2018-03-03,26.907083333333333,,26.907083333333333
549,2018-03-04,27.895833333333332,,27.895833333333332
549,2018-03-05,25.774166666666662,,25.774166666666662
549,2018-03-06,75.44416666666667,,75.44416666666667
549,2018-03-07,0.2854166666666667,,0.2854166666666667
549,2018-03-08,0.05416666666666667,,0.05416666666666667
549,2018-03-09,0.56875,,0.56875
549,2018-03-10,1.2558333333333334,,1.2558333333333334
549,2018-03-11,6.946666666666666,,6.946666666666666
549,2018-03-12,9.99625,,9.99625
549,2018-03-13,0.8424999999999999,,0.8424999999999999
549,2018-03-14,16.17916666666667,,16.17916666666667
549,2018-03-15,32.80458333333333,,32.80458333333333
549,2018-03-16,39.908750000000005,,39.908750000000005
549,2018-03-17,89.84375,,89.84375
549,2018-03-18,89.58875,,89.58875
549,2018-03-19,89.72583333333334,,89.72583333333334
549,2018-03-20,33.42208333333333,,33.42208333333333
549,2018-03-21,15.734583333333335,,15.734583333333335
549,2018-03-22,58.41291666666666,,58.41291666666666
549,2018-03-23,73.22541666666666,,73.22541666666666
549,2018-03-24,92.6975,,92.6975
549,2018-03-25,56.782916666666665,,56.782916666666665
549,2018-03-26,104.61916666666667,,104.61916666666667
549,2018-03-27,61.63958333333334,,61.63958333333334
549,2018-03-28,51.95208333333333,,51.95208333333333
549,2018-03-29,16.780416666666667,,16.780416666666667
549,2018-03-30,21.542083333333327,,21.542083333333327
549,2018-03-31,106.28375,,106.28375
549,2018-04-01,62.58833333333333,,62.58833333333333
549,2018-04-02,1.9983333333333333,,1.9983333333333333
549,2018-04-03,4.97625,,4.97625
549,2018-04-04,24.009583333333328,,24.009583333333328
549,2018-04-05,98.06541666666665,,98.06541666666665
549,2018-04-06,36.61208333333333,,36.61208333333333
549,2018-04-07,71.92375,,71.92375
549,2018-04-08,82.92291666666667,,82.92291666666667
549,2018-04-09,95.22208333333337,,95.22208333333337
549,2018-04-10,40.788333333333334,,40.788333333333334
549,2018-04-11,93.5075,,93.5075
549,2018-04-12,57.32458333333332,,57.32458333333332
549,2018-04-13,63.407916666666665,,63.407916666666665
549,2018-04-14,97.22000000000001,,97.22000000000001
549,2018-04-15,26.695416666666663,,26.695416666666663
549,2018-04-16,24.617500000000003,,24.617500000000003
549,2018-04-17,41.21708333333334,,41.21708333333334
549,2018-04-18,64.79124999999999,,64.79124999999999
549,2018-04-19,26.64666666666666,,26.64666666666666
549,2018-04-20,102.66541666666666,,102.66541666666666
549,2018-04-21,117.2070833333333,,117.2070833333333
549,2018-04-22,115.69208333333331,,115.69208333333331
549,2018-04-23,116.71916666666668,,116.71916666666668
549,2018-04-24,72.94375,,72.94375
549,2018-04-25,34.608333333333334,,34.608333333333334
549,2018-04-26,100.5220833333333,,100.5220833333333
549,2018-04-27,20.22041666666667,,20.22041666666667
549,2018-04-28,87.78166666666668,,87.78166666666668
549,2018-04-29,57.356249999999996,,57.356249999999996
549,2018-04-30,55.67958333333334,,55.67958333333334
549,2018-05-01,103.14291666666666,,103.14291666666666
549,2018-05-02,103.66583333333334,,103.66583333333334
549,2018-05-03,97.42250000000001,,97.42250000000001
549,2018-05-04,51.09708333333334,,51.09708333333334
549,2018-05-05,79.13583333333334,,79.13583333333334
549,2018-05-06,22.58458333333333,,22.58458333333333
549,2018-05-07,75.93958333333333,,75.93958333333333
549,2018-05-08,98.66875,,98.66875
549,2018-05-09,109.18291666666664,,109.18291666666664
549,2018-05-10,80.69916666666667,,80.69916666666667
549,2018-05-11,115.32374999999998,,115.32374999999998
549,2018-05-12,13.54958333333333,,13.54958333333333
549,2018-05-13,29.59833333333333,,29.59833333333333
549,2018-05-14,74.94541666666667,,74.94541666666667
549,2018-05-15,88.70666666666669,,88.70666666666669
549,2018-05-16,23.356250000000003,,23.356250000000003
549,2018-05-17,57.37833333333333,,57.37833333333333
549,2018-05-18,72.72791666666666,,72.72791666666666
549,2018-05-19,21.71291666666667,,21.71291666666667
549,2018-05-20,68.35916666666667,,68.35916666666667
549,2018-05-21,117.62666666666667,,117.62666666666667
549,2018-05-22,31.505,,31.505
549,2018-05-23,101.07458333333335,,101.07458333333335
549,2018-05-24,116.61791666666669,,116.61791666666669
549,2018-05-25,101.5,,101.5
549,2018-05-26,90.05333333333334,,90.05333333333334
549,2018-05-27,18.818333333333335,,18.818333333333335
549,2018-05-28,58.05583333333332,,58.05583333333332
549,2018-05-29,112.88499999999999,,112.88499999999999
549,2018-05-30,107.49874999999997,,107.49874999999997
549,2018-05-31,42.70791666666667,,42.70791666666667
549,2018-06-01,57.76,,57.76
549,2018-06-02,104.8395833333333,,104.8395833333333
549,2018-06-03,69.36458333333333,,69.36458333333333
549,2018-06-04,82.7975,,82.7975
549,2018-06-05,71.97458333333334,,71.97458333333334
549,2018-06-06,72.61291666666666,,72.61291666666666
549,2018-06-07,83.06375000000001,,83.06375000000001
549,2018-06-08,100.16291666666666,,100.16291666666666
549,2018-06-09,100.33708333333334,,100.33708333333334
549,2018-06-10,51.59375,,51.59375
549,2018-06-11,116.58541666666666,,116.58541666666666
549,2018-06-12,125.17208333333332,,125.17208333333332
549,2018-06-13,29.5575,,29.5575
549,2018-06-14,123.75208333333336,,123.75208333333336
549,2018-06-15,87.90374999999999,,87.90374999999999
549,2018-06-16,121.24666666666667,,121.24666666666667
549,2018-06-17,117.44291666666668,,117.44291666666668
549,2018-06-18,106.30958333333335,,106.30958333333335
549,2018-06-19,113.06500000000001,,113.06500000000001
549,2018-06-20,86.205,,86.205
549,2018-06-21,113.87625000000001,,113.87625000000001
549,2018-06-22,92.60416666666667,,92.60416666666667
549,2018-06-23,35.300000000000004,,35.300000000000004
549,2018-06-24,68.97458333333333,,68.97458333333333
549,2018-06-25,95.86791666666666,,95.86791666666666
549,2018-06-26,105.20166666666667,,105.20166666666667
549,2018-06-27,39.290000000000006,,39.290000000000006
549,2018-06-28,59.97208333333334,,59.97208333333334
549,2018-06-29,96.91708333333332,,96.91708333333332
549,2018-06-30,111.21416666666666,,111.21416666666666
549,2018-07-01,98.83125,,98.83125
549,2018-07-02,114.55125000000002,,114.55125000000002
549,2018-07-03,68.92791666666666,,68.92791666666666
549,2018-07-04,68.96583333333332,,68.96583333333332
549,2018-07-05,91.01416666666667,,91.01416666666667
549,2018-07-06,47.59291666666667,,47.59291666666667
549,2018-07-07,121.435,,121.435
549,2018-07-08,122.09000000000002,,122.09000000000002
549,2018-07-09,120.54083333333335,,120.54083333333335
549,2018-07-10,111.84833333333331,,111.84833333333331
549,2018-07-11,103.39000000000003,,103.39000000000003
549,2018-07-12,116.50333333333333,,116.50333333333333
549,2018-07-13,99.02750000000002,,99.02750000000002
549,2018-07-14,88.45166666666665,,88.45166666666665
549,2018-07-15,77.12124999999999,,77.12124999999999
549,2018-07-16,98.03249999999998,,98.03249999999998
549,2018-07-17,55.89458333333334,,55.89458333333334
549,2018-07-18,114.91125,,114.91125
549,2018-07-19,120.84166666666665,,120.84166666666665
549,2018-07-20,106.71624999999999,,106.71624999999999
549,2018-07-21,94.58624999999996,,94.58624999999996
549,2018-07-22,64.26541666666667,,64.26541666666667
549,2018-07-23,49.5025,,49.5025
549,2018-07-24,76.33333333333334,,76.33333333333334
549,2018-07-25,37.61583333333333,,37.61583333333333
549,2018-07-26,82.60166666666666,,82.60166666666666
549,2018-07-27,67.50791666666666,,67.50791666666666
549,2018-07-28,80.16791666666666,,80.16791666666666
549,2018-07-29,88.08166666666669,,88.08166666666669
549,2018-07-30,52.60708333333333,,52.60708333333333
549,2018-07-31,101.13916666666665,,101.13916666666665
549,2018-08-01,53.571666666666665,,53.571666666666665
549,2018-08-02,71.82791666666667,,71.82791666666667
549,2018-08-03,54.294166666666676,,54.294166666666676
549,2018-08-04,56.91625,,56.91625
549,2018-08-05,96.90083333333332,,96.90083333333332
549,2018-08-06,92.38791666666668,,92.38791666666668
549,2018-08-07,79.88125000000001,,79.88125000000001
549,2018-08-08,85.32166666666664,,85.32166666666664
549,2018-08-09,92.14583333333333,,92.14583333333333
549,2018-08-10,84.15000000000002,,84.15000000000002
549,2018-08-11,20.677083333333332,,20.677083333333332
549,2018-08-12,58.6625,,58.6625
549,2018-08-13,9.481666666666667,,9.481666666666667
549,2018-08-14,54.73666666666667,,54.73666666666667
549,2018-08-15,81.26958333333333,,81.26958333333333
549,2018-08-16,78.18999999999998,,78.18999999999998
549,2018-08-17,58.76166666666666,,58.76166666666666
549,2018-08-18,44.778749999999995,,44.778749999999995
549,2018-08-19,41.990833333333335,,41.990833333333335
549,2018-08-20,39.01666666666666,,39.01666666666666
549,2018-08-21,74.79833333333333,,74.79833333333333
549,2018-08-22,72.94541666666667,,72.94541666666667
549,2018-08-23,103.27083333333333,,103.27083333333333
549,2018-08-24,89.98291666666667,,89.98291666666667
549,2018-08-25,78.69541666666667,,78.69541666666667
549,2018-08-26,82.45458333333333,,82.45458333333333
549,2018-08-27,88.19166666666668,,88.19166666666668
549,2018-08-28,91.98708333333333,,91.98708333333333
549,2018-08-29,92.64041666666667,,92.64041666666667
549,2018-08-30,86.81541666666665,,86.81541666666665
549,2018-08-31,41.35916666666666,,41.35916666666666
549,2018-09-01,58.06499999999999,,58.06499999999999
549,2018-09-02,59.947916666666664,,59.947916666666664
549,2018-09-03,79.21499999999999,,79.21499999999999
549,2018-09-04,89.04833333333333,,89.04833333333333
549,2018-09-05,82.57291666666667,,82.57291666666667
549,2018-09-06,72.92041666666665,,72.92041666666665
549,2018-09-07,22.170416666666668,,22.170416666666668
549,2018-09-08,27.701666666666657,,27.701666666666657
549,2018-09-09,22.31125,,22.31125
549,2018-09-10,10.300833333333333,,10.300833333333333
549,2018-09-11,29.841250000000002,,29.841250000000002
549,2018-09-12,29.99625,,29.99625
549,2018-09-13,44.78666666666666,,44.78666666666666
549,2018-09-14,34.79708333333333,,34.79708333333333
549,2018-09-15,78.68625,,78.68625
549,2018-09-16,87.19291666666668,,87.19291666666668
549,2018-09-17,46.49208333333332,,46.49208333333332
549,2018-09-18,30.385833333333334,,30.385833333333334
549,2018-09-19,76.20083333333334,,76.20083333333334
549,2018-09-20,44.27458333333334,,44.27458333333334
549,2018-09-21,18.47666666666667,,18.47666666666667
549,2018-09-22,59.204583333333325,,59.204583333333325
549,2018-09-23,30.31500000000001,,30.31500000000001
549,2018-09-24,42.770833333333336,,42.770833333333336
549,2018-09-25,8.382916666666667,,8.382916666666667
549,2018-09-26,31.360833333333332,,31.360833333333332
549,2018-09-27,65.13541666666667,,65.13541666666667
549,2018-09-28,25.381249999999998,,25.381249999999998
549,2018-09-29,66.03125,,66.03125
549,2018-09-30,67.47666666666667,,67.47666666666667
549,2018-10-01,31.327083333333334,,31.327083333333334
549,2018-10-02,27.785,,27.785
549,2018-10-03,43.803333333333335,,43.803333333333335
549,2018-10-04,38.70458333333334,,38.70458333333334
549,2018-10-05,69.77958333333333,,69.77958333333333
549,2018-10-06,13.723749999999997,,13.723749999999997
549,2018-10-07,31.325833333333335,,31.325833333333335
549,2018-10-08,0.0,,0.0
549,2018-10-09,5.984583333333333,,5.984583333333333
549,2018-10-10,49.795416666666675,,49.795416666666675
549,2018-10-11,12.28125,,12.28125
549,2018-10-12,62.4375,,62.4375
549,2018-10-13,36.53125000000001,,36.53125000000001
549,2018-10-14,35.916666666666664,,35.916666666666664
549,2018-10-15,5.90625,,5.90625
549,2018-10-16,60.653333333333336,,60.653333333333336
549,2018-10-17,52.221666666666664,,52.221666666666664
549,2018-10-18,75.35541666666667,,75.35541666666667
549,2018-10-19,60.93791666666666,,60.93791666666666
549,2018-10-20,31.943750000000005,,31.943750000000005
549,2018-10-21,39.299166666666665,,39.299166666666665
549,2018-10-22,33.08875,,33.08875
549,2018-10-23,53.86958333333333,,53.86958333333333
549,2018-10-24,46.602916666666665,,46.602916666666665
549,2018-10-25,69.83749999999999,,69.83749999999999
549,2018-10-26,41.91041666666667,,41.91041666666667
549,2018-10-27,9.482916666666666,,9.482916666666666
549,2018-10-28,26.62,,26.62
549,2018-10-29,24.972916666666663,,24.972916666666663
549,2018-10-30,60.826666666666675,,60.826666666666675
549,2018-10-31,47.035000000000004,,47.035000000000004
549,2018-11-01,34.123749999999994,,34.123749999999994
549,2018-11-02,11.423333333333332,,11.423333333333332
549,2018-11-03,31.45833333333334,,31.45833333333334
549,2018-11-04,53.80083333333334,,53.80083333333334
549,2018-11-05,8.506666666666666,,8.506666666666666
549,2018-11-06,7.935833333333334,,7.935833333333334
549,2018-11-07,51.07041666666668,,51.07041666666668
549,2018-11-08,52.4675,,52.4675
549,2018-11-09,11.51041666666667,,11.51041666666667
549,2018-11-10,44.99333333333334,,44.99333333333334
549,2018-11-11,56.57791666666666,,56.57791666666666
549,2018-11-12,45.60541666666666,,45.60541666666666
549,2018-11-13,9.130416666666667,,9.130416666666667
549,2018-11-14,43.28916666666666,,43.28916666666666
549,2018-11-15,9.4025,,9.4025
549,2018-11-16,0.33249999999999996,,0.33249999999999996
549,2018-11-17,8.39875,,8.39875
549,2018-11-18,11.777499999999998,,11.777499999999998
549,2018-11-19,23.735000000000003,,23.735000000000003
549,2018-11-20,12.583333333333336,,12.583333333333336
549,2018-11-21,22.630416666666665,,22.630416666666665
549,2018-11-22,49.403333333333336,,49.403333333333336
549,2018-11-23,41.57458333333334,,41.57458333333334
549,2018-11-24,13.886666666666665,,13.886666666666665
549,2018-11-25,31.49083333333333,,31.49083333333333
549,2018-11-26,4.827916666666667,,4.827916666666667
549,2018-11-27,13.217916666666667,,13.217916666666667
549,2018-11-28,17.27625,,17.27625
549,2018-11-29,42.91916666666666,,42.91916666666666
549,2018-11-30,13.117083333333332,,13.117083333333332
549,2018-12-01,35.12375,,35.12375
549,2018-12-02,6.363333333333333,,6.363333333333333
549,2018-12-03,26.985833333333332,,26.985833333333332
549,2018-12-04,38.3075,,38.3075
549,2018-12-05,30.100000000000005,,30.100000000000005
549,2018-12-06,34.01291666666667,,34.01291666666667
549,2018-12-07,31.11583333333333,,31.11583333333333
549,2018-12-08,30.05333333333333,,30.05333333333333
549,2018-12-09,22.3775,,22.3775
549,2018-12-10,40.77375,,40.77375
549,2018-12-11,38.1525,,38.1525
549,2018-12-12,26.57041666666667,,26.57041666666667
549,2018-12-13,6.005,,6.005
549,2018-12-14,10.269583333333333,,10.269583333333333
549,2018-12-15,9.340833333333334,,9.340833333333334
549,2018-12-16,3.965,,3.965
549,2018-12-17,14.847916666666668,,14.847916666666668
549,2018-12-18,40.78000000000001,,40.78000000000001
549,2018-12-19,37.979166666666664,,37.979166666666664
549,2018-12-20,18.784166666666668,,18.784166666666668
549,2018-12-21,4.2645833333333325,,4.2645833333333325
549,2018-12-22,22.132916666666663,,22.132916666666663
549,2018-12-23,35.85791666666666,,35.85791666666666
549,2018-12-24,21.880416666666665,,21.880416666666665
549,2018-12-25,37.920416666666675,,37.920416666666675
549,2018-12-26,16.047916666666666,,16.047916666666666
549,2018-12-27,36.35791666666667,,36.35791666666667
549,2018-12-28,2.7237500000000003,,2.7237500000000003
549,2018-12-29,25.88666666666667,,25.88666666666667
549,2018-12-30,10.993333333333332,,10.993333333333332
549,2018-12-31,10.974166666666667,,10.974166666666667
549,2019-01-01,25.006249999999998,,25.006249999999998
549,2019-01-02,33.7825,,33.7825
549,2019-01-03,31.13541666666666,,31.13541666666666
549,2019-01-04,26.180833333333336,,26.180833333333336
549,2019-01-05,4.0129166666666665,,4.0129166666666665
549,2019-01-06,18.199166666666667,,18.199166666666667
549,2019-01-07,36.583333333333336,,36.583333333333336
549,2019-01-08,6.53,,6.53
549,2019-01-09,20.071666666666665,,20.071666666666665
549,2019-01-10,24.67458333333333,,24.67458333333333
549,2019-01-11,41.98708333333333,,41.98708333333333
549,2019-01-12,21.11708333333333,,21.11708333333333
549,2019-01-13,43.80083333333334,,43.80083333333334
549,2019-01-14,46.655,,46.655
549,2019-01-15,42.05458333333333,,42.05458333333333
549,2019-01-16,16.170416666666668,,16.170416666666668
549,2019-01-17,37.65083333333334,,37.65083333333334
549,2019-01-18,14.929583333333333,,14.929583333333333
549,2019-01-19,21.869583333333328,,21.869583333333328
549,2019-01-20,3.30875,,3.30875
549,2019-01-21,16.330833333333334,,16.330833333333334
549,2019-01-22,23.21083333333333,,23.21083333333333
549,2019-01-23,7.277083333333334,,7.277083333333334
549,2019-01-24,2.7495833333333337,,2.7495833333333337
549,2019-01-25,40.009166666666665,,40.009166666666665
549,2019-01-26,51.227916666666665,,51.227916666666665
549,2019-01-27,30.646249999999995,,30.646249999999995
549,2019-01-28,41.740833333333335,,41.740833333333335
549,2019-01-29,8.8075,,8.8075
549,2019-01-30,46.23041666666666,,46.23041666666666
549,2019-01-31,53.803333333333335,,53.803333333333335
549,2019-02-01,46.43749999999999,,46.43749999999999
549,2019-02-02,50.3425,,50.3425
549,2019-02-03,37.102916666666665,,37.102916666666665
549,2019-02-04,52.7525,,52.7525
549,2019-02-05,0.0,,0.0
549,2019-02-06,15.871249999999998,,15.871249999999998
549,2019-02-07,14.925833333333332,,14.925833333333332
549,2019-02-08,32.16833333333333,,32.16833333333333
549,2019-02-09,64.07291666666667,,64.07291666666667
549,2019-02-10,54.22,,54.22
549,2019-02-11,26.159999999999997,,26.159999999999997
549,2019-02-12,1.2554166666666668,,1.2554166666666668
549,2019-02-13,6.179583333333333,,6.179583333333333
549,2019-02-14,37.31249999999999,,37.31249999999999
549,2019-02-15,24.534999999999997,,24.534999999999997
549,2019-02-16,67.745,,67.745
549,2019-02-17,62.212500000000006,,62.212500000000006
549,2019-02-18,21.623749999999998,,21.623749999999998
549,2019-02-19,71.00250000000001,,71.00250000000001
549,2019-02-20,14.524583333333334,,14.524583333333334
549,2019-02-21,50.3175,,50.3175
549,2019-02-22,49.79666666666666,,49.79666666666666
549,2019-02-23,41.025,,41.025
549,2019-02-24,8.980416666666667,,8.980416666666667
549,2019-02-25,50.16041666666667,,50.16041666666667
549,2019-02-26,77.15208333333334,,77.15208333333334
549,2019-02-27,29.38666666666666,,29.38666666666666
549,2019-02-28,58.148749999999986,,58.148749999999986
549,2019-03-01,13.191666666666668,,13.191666666666668
549,2019-03-02,2.19375,,2.19375
549,2019-03-03,40.42583333333334,,40.42583333333334
549,2019-03-04,0.15,,0.15
549,2019-03-05,1.1608333333333332,,1.1608333333333332
549,2019-03-06,0.8479166666666665,,0.8479166666666665
549,2019-03-07,1.1354166666666667,,1.1354166666666667
549,2019-03-08,1.3945833333333333,,1.3945833333333333
549,2019-03-09,5.925833333333333,,5.925833333333333
549,2019-03-10,5.052083333333333,,5.052083333333333
549,2019-03-11,74.59208333333335,,74.59208333333335
549,2019-03-12,69.45666666666666,,69.45666666666666
549,2019-03-13,63.724999999999994,,63.724999999999994
549,2019-03-14,71.23666666666666,,71.23666666666666
549,2019-03-15,35.299166666666665,,35.299166666666665
549,2019-03-16,70.35791666666668,,70.35791666666668
549,2019-03-17,90.50750000000001,,90.50750000000001
549,2019-03-18,78.71083333333334,,78.71083333333334
549,2019-03-19,73.42458333333333,,73.42458333333333
549,2019-03-20,79.74125,,79.74125
549,2019-03-21,17.495,,17.495
549,2019-03-22,31.6275,,31.6275
549,2019-03-23,65.08458333333333,,65.08458333333333
549,2019-03-24,71.84916666666668,,71.84916666666668